Previsão horária em 10-y Oktyabr

Hoje, 30 Outubro, Sexta-feira

Tempo Temperatura Precipitação Vento Pressão Humidade
00:00 +4°C° 0 mm 2 m/s 744 mmHg 68%
01:00 +5°C° 0 mm 2 m/s 744 mmHg 69%
02:00 +5°C° 0 mm 2 m/s 744 mmHg 70%
03:00 +5°C° 0 mm 2 m/s 743 mmHg 70%
04:00 +5°C° 0 mm 2 m/s 743 mmHg 71%
05:00 +5°C° 0 mm 2 m/s 743 mmHg 71%
06:00 +5°C° 0 mm 2 m/s 742 mmHg 72%
07:00 +5°C° 0 mm 2 m/s 742 mmHg 72%
08:00 +5°C° 0 mm 2 m/s 742 mmHg 72%
09:00 +5°C° 0 mm 2 m/s 743 mmHg 72%
10:00 +6°C° 0 mm 2 m/s 742 mmHg 70%
11:00 +7°C° 0 mm 2 m/s 742 mmHg 69%
12:00 +8°C° 0 mm 2 m/s 742 mmHg 67%
13:00 +9°C° 0 mm 1 m/s 742 mmHg 67%
14:00 +10°C° 0 mm 1 m/s 742 mmHg 66%
15:00 +10°C° 0 mm 1 m/s 742 mmHg 66%
16:00 +9°C° 0 mm 1 m/s 742 mmHg 70%
17:00 +9°C° 0 mm 1 m/s 742 mmHg 74%
18:00 +8°C° 0 mm 1 m/s 742 mmHg 78%
19:00 +8°C° 0 mm 1 m/s 742 mmHg 80%
20:00 +8°C° 0 mm 1 m/s 742 mmHg 81%
21:00 +8°C° 0 mm 1 m/s 742 mmHg 83%
22:00 +7°C° 0 mm 1 m/s 742 mmHg 85%
23:00 +7°C° 0 mm 1 m/s 742 mmHg 86%

Amanhã, 31 Outubro, Sábado

Tempo Temperatura Precipitação Vento Pressão Humidade
00:00 +6°C° 0 mm 1 m/s 742 mmHg 88%
01:00 +6°C° 0 mm 1 m/s 742 mmHg 88%
02:00 +7°C° 0 mm 1 m/s 742 mmHg 88%
03:00 +7°C° 0 mm 1 m/s 742 mmHg 88%
04:00 +6°C° 0 mm 2 m/s 742 mmHg 88%
05:00 +6°C° 0 mm 2 m/s 742 mmHg 88%
06:00 +6°C° 0 mm 2 m/s 742 mmHg 87%
07:00 +6°C° 0 mm 2 m/s 742 mmHg 87%
08:00 +6°C° 0 mm 2 m/s 742 mmHg 86%
09:00 +5°C° 0 mm 3 m/s 742 mmHg 86%
10:00 +5°C° 0 mm 3 m/s 743 mmHg 83%
11:00 +7°C° 0 mm 3 m/s 743 mmHg 81%
12:00 +8°C° 0 mm 3 m/s 744 mmHg 79%
13:00 +7°C° 0 mm 4 m/s 744 mmHg 78%
14:00 +7°C° 0 mm 4 m/s 744 mmHg 76%
15:00 +8°C° 0 mm 4 m/s 744 mmHg 75%
16:00 +7°C° 0 mm 4 m/s 744 mmHg 79%
17:00 +6°C° 0 mm 4 m/s 744 mmHg 82%
18:00 +5°C° 0 mm 4 m/s 744 mmHg 85%
19:00 +5°C° 0 mm 4 m/s 745 mmHg 86%
20:00 +5°C° 0 mm 4 m/s 745 mmHg 86%
21:00 +5°C° 0 mm 4 m/s 745 mmHg 86%
22:00 +4°C° 0 mm 4 m/s 745 mmHg 87%
23:00 +3°C° 0 mm 5 m/s 745 mmHg 88%

Depois de amanhã, 1 Novembro, Domingo

Tempo Temperatura Precipitação Vento Pressão Humidade
00:00 +3°C° 0 mm 5 m/s 745 mmHg 89%
01:00 +3°C° 0 mm 5 m/s 745 mmHg 90%
02:00 +3°C° 0 mm 5 m/s 745 mmHg 91%
03:00 +2°C° 0 mm 6 m/s 745 mmHg 91%
04:00 +2°C° 0 mm 6 m/s 745 mmHg 91%
05:00 +2°C° 0 mm 6 m/s 745 mmHg 91%
06:00 +2°C° 0 mm 7 m/s 745 mmHg 90%
07:00 +2°C° 0 mm 7 m/s 745 mmHg 90%
08:00 +2°C° 0 mm 7 m/s 745 mmHg 90%
09:00 +2°C° 0 mm 8 m/s 745 mmHg 90%
10:00 +3°C° 0.1 mm 7 m/s 745 mmHg 89%
11:00 +3°C° 0.1 mm 7 m/s 745 mmHg 89%
12:00 +3°C° 0.1 mm 7 m/s 745 mmHg 89%
13:00 +3°C° 0.3 mm 7 m/s 745 mmHg 89%
14:00 +3°C° 0.3 mm 6 m/s 745 mmHg 89%
15:00 +4°C° 0.3 mm 6 m/s 745 mmHg 90%
16:00 +4°C° 0.5 mm 6 m/s 745 mmHg 90%
17:00 +4°C° 0.5 mm 6 m/s 745 mmHg 91%
18:00 +4°C° 0.5 mm 6 m/s 745 mmHg 92%
19:00 +5°C° 0.1 mm 5 m/s 745 mmHg 92%
20:00 +5°C° 0.1 mm 5 m/s 745 mmHg 93%
21:00 +5°C° 0.1 mm 5 m/s 745 mmHg 93%
22:00 +5°C° 0 mm 4 m/s 745 mmHg 94%
23:00 +6°C° 0 mm 4 m/s 745 mmHg 94%

2 Novembro, Segunda-feira

Tempo Temperatura Precipitação Vento Pressão Humidade
00:00 +6°C° 0 mm 4 m/s 744 mmHg 94%
01:00 +6°C° 0 mm 4 m/s 745 mmHg 94%
02:00 +6°C° 0 mm 4 m/s 745 mmHg 95%
03:00 +6°C° 0 mm 4 m/s 745 mmHg 95%
04:00 +6°C° 0 mm 4 m/s 745 mmHg 94%
05:00 +6°C° 0 mm 4 m/s 744 mmHg 94%
06:00 +6°C° 0 mm 4 m/s 744 mmHg 94%
07:00 +6°C° 0 mm 4 m/s 744 mmHg 93%
08:00 +6°C° 0 mm 5 m/s 745 mmHg 93%
09:00 +6°C° 0 mm 5 m/s 745 mmHg 92%
10:00 +6°C° 0 mm 5 m/s 745 mmHg 89%
11:00 +7°C° 0 mm 5 m/s 745 mmHg 86%
12:00 +7°C° 0 mm 5 m/s 745 mmHg 84%
13:00 +7°C° 0.3 mm 5 m/s 745 mmHg 85%
14:00 +7°C° 0.3 mm 5 m/s 745 mmHg 86%
15:00 +6°C° 0.3 mm 5 m/s 745 mmHg 87%
16:00 +6°C° 0.2 mm 5 m/s 745 mmHg 88%
17:00 +6°C° 0.2 mm 4 m/s 745 mmHg 88%
18:00 +6°C° 0.2 mm 4 m/s 745 mmHg 88%
19:00 +6°C° 0 mm 4 m/s 745 mmHg 89%
20:00 +6°C° 0 mm 4 m/s 745 mmHg 90%
21:00 +6°C° 0 mm 4 m/s 746 mmHg 90%
22:00 +6°C° 0 mm 4 m/s 746 mmHg 91%
23:00 +6°C° 0 mm 4 m/s 746 mmHg 91%

3 Novembro, Terça-feira

Tempo Temperatura Precipitação Vento Pressão Humidade
00:00 +6°C° 0 mm 4 m/s 746 mmHg 91%
01:00 +6°C° 0 mm 4 m/s 746 mmHg 92%
02:00 +6°C° 0 mm 5 m/s 746 mmHg 92%
03:00 +6°C° 0 mm 5 m/s 746 mmHg 93%
04:00 +6°C° 0 mm 5 m/s 746 mmHg 93%
05:00 +6°C° 0 mm 4 m/s 746 mmHg 93%
06:00 +6°C° 0 mm 4 m/s 746 mmHg 93%
07:00 +6°C° 0 mm 4 m/s 747 mmHg 92%
08:00 +6°C° 0 mm 4 m/s 747 mmHg 92%
09:00 +6°C° 0 mm 4 m/s 747 mmHg 91%
10:00 +7°C° 0 mm 4 m/s 747 mmHg 90%
11:00 +7°C° 0 mm 4 m/s 748 mmHg 89%
12:00 +7°C° 0 mm 4 m/s 748 mmHg 88%
13:00 +7°C° 0 mm 4 m/s 748 mmHg 87%
14:00 +8°C° 0 mm 4 m/s 748 mmHg 86%
15:00 +9°C° 0 mm 3 m/s 748 mmHg 85%
16:00 +9°C° 0 mm 3 m/s 748 mmHg 86%
17:00 +8°C° 0 mm 3 m/s 749 mmHg 87%
18:00 +8°C° 0 mm 3 m/s 749 mmHg 88%
19:00 +8°C° 0 mm 3 m/s 749 mmHg 88%
20:00 +8°C° 0 mm 3 m/s 749 mmHg 88%
21:00 +8°C° 0 mm 3 m/s 750 mmHg 88%
22:00 +8°C° 0 mm 3 m/s 750 mmHg 89%
23:00 +8°C° 0 mm 3 m/s 750 mmHg 91%

4 Novembro, Quarta-feira

Tempo Temperatura Precipitação Vento Pressão Humidade
00:00 +7°C° 0 mm 3 m/s 750 mmHg 92%
01:00 +7°C° 0 mm 3 m/s 750 mmHg 93%
02:00 +7°C° 0 mm 3 m/s 750 mmHg 93%
03:00 +5°C° 0 mm 3 m/s 750 mmHg 94%
04:00 +6°C° 0 mm 2 m/s 750 mmHg 94%
05:00 +6°C° 0 mm 2 m/s 750 mmHg 94%
06:00 +6°C° 0 mm 2 m/s 750 mmHg 94%
07:00 +6°C° 0 mm 2 m/s 750 mmHg 93%
08:00 +6°C° 0 mm 2 m/s 751 mmHg 92%
09:00 +6°C° 0 mm 2 m/s 751 mmHg 91%
10:00 +7°C° 0 mm 2 m/s 751 mmHg 87%
11:00 +8°C° 0 mm 2 m/s 751 mmHg 83%
12:00 +9°C° 0 mm 2 m/s 752 mmHg 79%
13:00 +9°C° 0 mm 2 m/s 752 mmHg 78%
14:00 +11°C° 0 mm 1 m/s 751 mmHg 77%
15:00 +11°C° 0 mm 1 m/s 751 mmHg 76%
16:00 +10°C° 0 mm 1 m/s 752 mmHg 80%
17:00 +9°C° 0 mm 1 m/s 752 mmHg 84%
18:00 +7°C° 0 mm 0 m/s 752 mmHg 88%
19:00 +7°C° 0 mm 0 m/s 752 mmHg 89%
20:00 +7°C° 0 mm 0 m/s 752 mmHg 90%
21:00 +6°C° 0 mm 0 m/s 752 mmHg 91%
22:00 +6°C° 0 mm 0 m/s 752 mmHg 91%
23:00 +6°C° 0 mm 0 m/s 752 mmHg 92%
Mostrar mais